User: anonymous   Login
Location: Palomar Mountain Lodge
(33.3110°N, 116.8495°W)
Time: 07:08:12
(UTC-07:00)
Language:

SWIFT - Orbit

View from above orbital plane
View from above orbital plane
View from above satellite
View from above satellite

Ground track
Ground track

The orbit data is extracted from the following two-line orbital elements,

1 28485U 04047A   18288.47395370  .00000992  00000-0  37943-4 0  9997
2 28485  20.5579 340.7369 0010935 250.6689 109.2563 15.04215504761369
Epoch (UTC): 15 October 2018 11:22:29
Eccentricity: 0.0010935
inclination: 20.5579°
perigee height: 546 km
apogee height: 561 km
right ascension of ascending node: 340.7369°
argument of perigee: 250.6689°
revolutions per day: 15.04215504
mean anomaly at epoch: 109.2563°
orbit number at epoch: 76136

The dashed part of the orbit path shows where the satellite is in the earth's shadow,  

DLR